London City, United Kingdom

2:03 AM GMT on February 10, 2016 (GMT +0000)
London City

Weather History for EGLC - November, 2012

Change the Weather History Date:

Sunday, November 18, 2012

  Actual Average Record
Temperature  
Mean Temperature 42 °F -  
Max Temperature 48 °F 47 °F - (-1)
Min Temperature 37 °F 40 °F - (-1)
Degree Days  
Heating Degree Days 22    
Moisture  
Dew Point 36 °F    
Average Humidity 76    
Maximum Humidity 93    
Minimum Humidity 58    
Precipitation  
Precipitation 0.00 in - - ()
Sea Level Pressure  
Sea Level Pressure 29.97 in    
Wind  
Wind Speed 3 mph ()    
Max Wind Speed 6 mph    
Max Gust Speed -    
Visibility 6.2 miles    
Events      
Averages and records for this station are not official NWS values.
T = Trace of Precipitation, MM = Missing Value Source: Averaged Metar Reports

Daily Weather History Graph

Daily Weather History Graph

Search for Another Location

Airport or City:

Trip Planner

Search our weather history database for the weather conditions in past years. The results will help you decide how hot, cold, wet, or windy it might be!

Date:

Astronomy

Nov. 18, 2012 Rise Set
Actual Time 7:23 AM GMT 4:06 PM GMT
Civil Twilight 6:45 AM GMT 4:43 PM GMT
Nautical Twilight 6:04 AM GMT 5:24 PM GMT
Astronomical Twilight 5:25 AM GMT 6:04 PM GMT
Moon 11:35 AM GMT (11/18) 9:16 PM GMT (11/18)
Length of Visible Light 9h 57m
Length of Day
8h 42m
Waxing Crescent, 28% of the Moon is Illuminated
Nov 18
Waxing Crescent
Nov 20
First Quarter
Nov 28
Full
Dec 6
Last Quarter
Dec 13
New

Hourly Weather History & Observations

Time (GMT) Temp. Windchill Dew Point Humidity Pressure Visibility Wind Dir Wind Speed Gust Speed Precip Events Conditions
12:20 AM 46.4 °F 45.2 °F 39.2 °F 76% 29.89 in 6.2 mi WNW 3.5 mph - N/A   Unknown
12:50 AM 46.4 °F 45.2 °F 39.2 °F 76% 29.89 in 6.2 mi West 3.5 mph - N/A   Unknown
1:20 AM 44.6 °F 43.1 °F 39.2 °F 81% 29.89 in 6.2 mi WNW 3.5 mph - N/A   Unknown
1:50 AM 44.6 °F - 39.2 °F 81% 29.89 in 6.2 mi WNW 2.3 mph - N/A   Unknown
2:20 AM 44.6 °F 43.1 °F 37.4 °F 76% 29.89 in 6.2 mi WNW 3.5 mph - N/A   Unknown
2:50 AM 42.8 °F - 37.4 °F 81% 29.89 in 6.2 mi WNW 2.3 mph - N/A   Unknown
3:20 AM 42.8 °F - 37.4 °F 81% 29.89 in 6.2 mi Calm Calm - N/A   Unknown
3:50 AM 42.8 °F 41.1 °F 37.4 °F 81% 29.89 in 6.2 mi West 3.5 mph - N/A   Unknown
4:20 AM 41.0 °F - 37.4 °F 87% 29.92 in 6.2 mi WNW 2.3 mph - N/A   Unknown
4:50 AM 41.0 °F - 37.4 °F 87% 29.92 in 6.2 mi NW 2.3 mph - N/A   Unknown
5:20 AM 41.0 °F - 37.4 °F 87% 29.92 in 6.2 mi Calm Calm - N/A   Unknown
5:50 AM 39.2 °F 37.0 °F 37.4 °F 93% 29.92 in 6.2 mi SW 3.5 mph - N/A   Unknown
6:20 AM 39.2 °F 37.0 °F 35.6 °F 87% 29.95 in 6.2 mi SW 3.5 mph - N/A   Unknown
6:50 AM 37.4 °F - 35.6 °F 93% 29.95 in 6.2 mi SW 2.3 mph - N/A   Unknown
7:20 AM 39.2 °F 35.9 °F 35.6 °F 87% 29.95 in 6.2 mi SSW 4.6 mph - N/A   Unknown
7:50 AM 39.2 °F 35.9 °F 35.6 °F 87% 29.95 in 6.2 mi SW 4.6 mph - N/A   Unknown
8:20 AM 39.2 °F 35.9 °F 35.6 °F 87% 29.98 in 6.2 mi SSW 4.6 mph - N/A   Unknown
8:50 AM 39.2 °F 35.9 °F 37.4 °F 93% 29.98 in 6.2 mi WSW 4.6 mph - N/A   Unknown
9:20 AM 41.0 °F 39.0 °F 37.4 °F 87% 29.98 in 6.2 mi SW 3.5 mph - N/A   Unknown
9:50 AM 42.8 °F 41.1 °F 37.4 °F 81% 29.98 in 6.2 mi WSW 3.5 mph - N/A   Unknown
10:20 AM 44.6 °F 43.1 °F 37.4 °F 76% 29.98 in 6.2 mi Variable 3.5 mph - N/A   Unknown
10:50 AM 44.6 °F 42.2 °F 37.4 °F 76% 29.98 in 6.2 mi WSW 4.6 mph - N/A   Unknown
11:20 AM 46.4 °F 44.3 °F 37.4 °F 71% 29.98 in 6.2 mi West 4.6 mph - N/A   Unknown
11:50 AM 46.4 °F - 37.4 °F 71% 29.98 in 6.2 mi Variable 2.3 mph - N/A   Unknown
12:20 PM 48.2 °F - 37.4 °F 66% 29.98 in - Variable 3.5 mph - N/A   Clear
12:50 PM 48.2 °F - 35.6 °F 62% 29.98 in 6.2 mi WSW 4.6 mph - N/A   Partly Cloudy
1:20 PM 48.2 °F - 35.6 °F 62% 29.98 in 6.2 mi WSW 4.6 mph - N/A   Partly Cloudy
1:50 PM 48.2 °F - 35.6 °F 62% 29.98 in 6.2 mi WSW 4.6 mph - N/A   Partly Cloudy
2:20 PM 48.2 °F - 33.8 °F 58% 29.98 in 6.2 mi SW 4.6 mph - N/A   Partly Cloudy
2:50 PM 48.2 °F - 33.8 °F 58% 29.98 in 6.2 mi Variable 3.5 mph - N/A   Partly Cloudy
3:20 PM 48.2 °F - 33.8 °F 58% 29.98 in - SSW 4.6 mph - N/A   Clear
3:50 PM 46.4 °F 45.2 °F 33.8 °F 62% 29.98 in - Variable 3.5 mph - N/A   Clear
4:20 PM 46.4 °F - 33.8 °F 62% 30.01 in - Variable 2.3 mph - N/A   Clear
4:50 PM 46.4 °F - 33.8 °F 62% 30.01 in - Variable 2.3 mph - N/A   Clear
5:20 PM 44.6 °F - 35.6 °F 71% 30.01 in - Calm Calm - N/A   Clear
5:50 PM 44.6 °F - 35.6 °F 71% 30.01 in - South 2.3 mph - N/A   Clear
6:20 PM 44.6 °F - 35.6 °F 71% 30.01 in - Variable 2.3 mph - N/A   Clear
6:50 PM 44.6 °F 41.4 °F 35.6 °F 71% 30.01 in - SE 5.8 mph - N/A   Clear
7:20 PM 44.6 °F 42.2 °F 33.8 °F 66% 30.01 in - SE 4.6 mph - N/A   Clear
7:50 PM 44.6 °F 43.1 °F 33.8 °F 66% 30.01 in - Variable 3.5 mph - N/A   Clear
8:20 PM 42.8 °F 40.1 °F 35.6 °F 76% 30.01 in - East 4.6 mph - N/A   Clear
8:50 PM 41.0 °F - 35.6 °F 81% 30.01 in - Calm Calm - N/A   Clear
9:20 PM 41.0 °F 39.0 °F 35.6 °F 81% 30.01 in - NE 3.5 mph - N/A   Clear
9:50 PM 41.0 °F - 35.6 °F 81% 30.01 in 6.2 mi NE 2.3 mph - N/A   Unknown
10:20 PM 41.0 °F - 35.6 °F 81% 30.01 in 6.2 mi NE 2.3 mph - N/A   Unknown
10:50 PM 39.2 °F - 35.6 °F 87% 29.98 in 6.2 mi Variable 2.3 mph - N/A   Unknown
11:20 PM 39.2 °F 37.0 °F 32.0 °F 75% 30.01 in 6.2 mi ESE 3.5 mph - N/A   Unknown
11:50 PM 42.8 °F 40.1 °F 33.8 °F 70% 29.98 in 6.2 mi SE 4.6 mph - N/A   Unknown